NUSAT-2 (BATATA) (41558 NORAD) Tracking and Keplerian Element Data

This shows tracking and keplerian element data for the satellite.

Feedback or suggestion? Click here.




ElementValue
Catalog41558
NameNUSAT-2 (BATATA)
Epoch Orbit36175
Epoch Day325.21576657
Epoch Year2022
RAAN70.2497
Inclination97.4142
Eccentricity0.0010017
Argument of Perigee158.7911
Mean Anonmoly261.2856
Mean Motion15.41360695
Decay Rate0.00017073
L11 41558U 16033C 22325.21576657 .00017073 00000+0 41011-3 0 9996
L22 41558 97.4142 70.2497 0010017 158.7911 261.2856 15.41360695361754



Live tracking and technical data element details for NUSAT-2 (BATATA) (NORAD 41558). NUSAT-2 (BATATA) can be tracked NOW for your location showing map with azimuth and elevation plus other details from your city location.







IsCatalogInMostPopularTable: catalog: 41558, numindb: 491
Update: records affected: 1



GetName: 41558 NUSAT-2 (BATATA)

Hit Count: updated at: Mon, 28 Nov 2022 05:57:02 GMT